Regional Weather Roundup
Issued by NWS Boston, MA

Home | Current Version | Previous Version | Text Only | Print | Product List | Glossary On
Versions: 1 2 3 4 5 6 7 8 9 10 11 12 13 14 15 16 17 18 19 20 21 22 23 24 25 26 27 28 29 30 31 32 33 34 35 36 37 38 39 40 41 42 43 44 45 46 47 48 49 50
000
ASUS41 KBOX 010210
RWRBOX

REGIONAL WEATHER ROUNDUP
NATIONAL WEATHER SERVICE TAUNTON MA
1000 PM EDT TUE MAY 31 2016

NOTE:  "FAIR" INDICATES FEW OR NO CLOUDS BELOW 12,000 FEET WITH NO
SIGNIFICANT WEATHER AND/OR OBSTRUCTIONS TO VISIBILITY.  THE FOLLOWING
OBSERVATION LOCATIONS DO NOT REPORT PRESENT WEATHER...PROVINCETOWN...
SMITHFIELD...BLOCK ISLAND...KEENE...AND OXFORD.

MAZALL-010300-
EASTERN MASSACHUSETTS

CITY           SKY/WX    TMP DP  RH WIND       PRES   REMARKS
BOSTON         PTCLDY    78  51  38 W10       29.93R
BEVERLY        CLEAR     73  52  47 W6        29.92R
LAWRENCE       CLEAR     74  52  46 SW8       29.94R
BEDFORD        CLEAR     68  53  58 W5        29.93R
BLUE HILL        N/A     70  51  51 W10       29.94R
NORWOOD        CLEAR     62  55  77 CALM      29.93R
MARSHFIELD     CLEAR     70  64  83 SW5       29.93R
PLYMOUTH       CLEAR     65  62  90 S5        29.95R
TAUNTON        CLEAR     67  61  81 CALM      29.94R
NEW BEDFORD    CLEAR     67  61  81 SW7       29.95R
$$

MAZALL-010300-
CAPE COD AND THE ISLANDS

CITY           SKY/WX    TMP DP  RH WIND       PRES   REMARKS
FALMOUTH       CLEAR     63  63 100 SW7       29.96R
HYANNIS        CLEAR     64  61  90 SW8       29.94R
CHATHAM        CLEAR     63  62  97 SW5       29.96R
PROVINCETOWN   CLEAR     62  60  93 SW10      29.94R
NANTUCKET      CLEAR     59  58  96 S6        29.97R
MARTHAS VNYRD  CLEAR     62  61  96 SW3       29.96R
$$

MAZALL-010300-
CENTRAL AND WESTERN MASSACHUSETTS

CITY           SKY/WX    TMP DP  RH WIND       PRES   REMARKS
WORCESTER      CLEAR     68  49  50 W10       29.99R
FITCHBURG      CLEAR     73  51  46 NW6       29.96R
ORANGE         CLEAR     66  55  67 CALM      29.97R
SPRINGFIELD    CLEAR     68  50  52 NW8       29.96R
WESTFIELD      CLEAR     68  52  56 W6        29.97R
NORTH ADAMS    CLEAR     61  51  70 CALM      30.00R
PITTSFIELD     CLEAR     68  39  34 NW7       30.01R
$$

RIZALL-010300-
RHODE ISLAND

CITY           SKY/WX    TMP DP  RH WIND       PRES   REMARKS
PROVIDENCE     CLEAR     71  63  75 W9        29.96R
NEWPORT        CLEAR     65  62  90 CALM      29.96R
BLOCK ISLAND   PTCLDY    62  60  93 SW10      29.98R
SMITHFIELD     CLEAR    N/A N/A N/A SW3       29.96R
WESTERLY       CLEAR     67  61  81 CALM      29.97R
$$

CTZALL-010300-
CONNECTICUT

CITY           SKY/WX    TMP DP  RH WIND       PRES   REMARKS
BRADLEY INTL   PTCLDY    75  47  36 N7        29.96R
HARTFORD       CLEAR     74  61  63 S5        29.96R
BRIDGEPORT     CLEAR     70  63  78 W5        29.96R
DANBURY        PTCLDY    68  61  78 CALM      29.98R
GROTON         CLEAR     63  62  97 NW3       29.96R
NEW HAVEN      CLEAR     70  62  76 CALM      29.96R
CHESTER        FAIR      70  64  83 SW6       29.98R
MERIDEN        CLEAR     70  63  78 CALM      29.97R
WILLIMANTIC    CLEAR     71  60  68 CALM      29.97R
OXFORD           N/A     68  61  77 N3        30.00R
$$

MEZ002-015-021-024-NHZ003-005-008-011-012-014-VTZ005-008-010300-
NORTHERN NEW ENGLAND

CITY           SKY/WX    TMP DP  RH WIND       PRES   REMARKS
PORTLAND ME    MOCLDY    73  49  42 N6        29.93R
BANGOR ME      PTCLDY    73  49  42 NW8       29.93R
CONCORD NH     CLEAR     64  52  64 CALM      29.94R
MANCHESTER NH  PTCLDY    73  50  44 CALM      29.92R
NASHUA NH      CLEAR     73  53  49 W5        29.94R
PORTSMOUTH NH  PTCLDY    68  53  58 S1        29.91R
JAFFREY NH     CLEAR     67  53  61 SW3       29.99R
KEENE NH       CLEAR    N/A N/A N/A CALM      29.97R
BURLINGTON VT  FAIR      67  50  54 N14       30.01R
MT. WASHINGTON PTCLDY    43  42  96 NW35        N/A  WCI  32
$$

NYZ052-076-010300-
EASTERN NEW YORK

CITY           SKY/WX    TMP DP  RH WIND       PRES   REMARKS
ALBANY         PTCLDY    67  44  43 W8        29.99R
NEW YORK CITY  MOCLDY    75  69  81 SW9       29.96R
$$

ANZALL-010300-
MARINE OBSERVATIONS

STATION/POSITION TIME  TEMP    WIND        PRES    VSBY  WAVE
                       AIR SEA DIR/SP/G                  HT/PER
                 (UTC) (F)     (DEG/KT/KT) (MB)    (MI)  (FT/S)
BOSTON BUOY      0150   65 61  190/  6/  6 1013.1R         1/10
BUZZARDS BAY     0100   60     240/ 15/ 15 1014.2R
NANTUCKET SOUND  0150   62 60  220/  8/ 10 1014.3R         1/ 5
MASS BAY-STELLWA NOT AVBL
ISLE OF SHOALS   0100   76     260/  3/  3 1012.1R
S OF BLOCK IS    NOT AVBL
$$

......................KEY.........................
  SKY/WX - SKY CONDITION/PRESENT WEATHER
  TMP    - TEMPERATURE IN FAHRENHEIT
  DWPT   - DEWPOINT IN FAHRENHEIT
  RH     - RELATIVE HUMIDITY IN PERCENT
  WIND   - DIRECTION AND SPEED IN MPH
  PRES   - MEAN SEA LEVEL PRESSURE IN INCHES OF HG
  WCI    - WIND CHILL INDEX
  VSB    - VISIBILITY IN MILES
  HX     - HEAT INDEX
  TC     - TEMPERATURE IN CELSIUS
  VRB    - VARIABLE WIND DIRECTION
  N/A    - NOT AVAILABLE



USA.gov is the U.S. government's official web portal to all federal, state and local government web resources and services.